Content
SEND FEEDBACK

Daily
Averages
Monthly
Summary
United States of America

INARAJAN, GUAM


Home > North America > United States > Guam
Elevation: 85 meters     Latitude: 13 18N     Longitude: 144 44E

WEATHER
 
SELECT A DAY
Number of Records: 342,166;   Date Range: 1/1/95 - 8/12/14
 
SHARE

PRINT THIS DATA

[ ← Previous Day ]
WEATHER ALMANAC - 17 MAY, 2013
[ Next Day → ]
[ °F ]   °C
Weather ElementAverageHighLow
Temperature27.5 °C30.2 °C (12:55 pm)26 °C (12:35 am)
Dewpoint24.1 °C25 °C (9:10 am)22.6 °C (10:55 pm)
Humidity81.9 %89 % (12:35 am)70 % (12:26 pm)
Barometer1012.2 hPa1013.5 hPa (9:00 am)1010.2 hPa (3:39 pm)
Wind Speed19.6 km/h27.8 km/h (8:55 am)
Wind Gust37 km/h (10:14 am)
Weather ElementAverage
Visibility15.4 km
Wind DirectionENE (74 °)

Weather ElementTotal
Precipitation1.27 mm
Cooling Degree Days9.8 (Base 18.3)
Growing Degree Days18.1 (Base 10)
Averaged from 93 records on 17 May, 2013
WEATHER CONDITIONS BREAKOUT
WIND DIRECTION BREAKOUT
WEATHER BY HOUR - 17 MAY, 2013
[ °F ]   °C
Local TimeTemperatureDewpointHumidityBarometerVisibilityWind DirectionWind SpeedGust SpeedPrecipitationEventsConditions
12:23 AM27 °C24 °C84 %1013.2 hPa16.1 kmENE (60°)16.7 km/hScattered Clouds
12:30 AM27 °C24 °C84 %1013.2 hPa16.1 kmENE (60°)13 km/hMostly Cloudy
12:35 AM26 °C24 °C89 %1013.2 hPa16.1 kmENE (70°)13 km/hMostly Cloudy
12:55 AM26.6 °C24.4 °C88 %1012.9 hPa16.1 kmENE (60°)14.8 km/hMostly Cloudy
12:57 AM27 °C24 °C84 %1012.9 hPa16.1 kmENE (70°)14.8 km/hMostly Cloudy
1:01 AM27 °C24 °C84 %1012.9 hPa16.1 kmENE (70°)18.5 km/hMostly Cloudy
1:21 AM27 °C24 °C84 %1012.5 hPa16.1 kmEast (80°)16.7 km/hMostly Cloudy
1:25 AM27 °C24 °C84 %1012.5 hPa16.1 kmEast (80°)18.5 km/hScattered Clouds
1:51 AM27 °C24 °C84 %1012.2 hPa16.1 kmENE (70°)16.7 km/hMostly Cloudy
1:52 AM27 °C24 °C84 %1012.2 hPa16.1 kmENE (70°)18.5 km/hMostly Cloudy
1:53 AM27 °C24 °C84 %1012.2 hPa16.1 kmENE (70°)18.5 km/hMostly Cloudy
1:55 AM26.6 °C24.1 °C86 %1012.2 hPa16.1 kmEast (80°)16.7 km/hMostly Cloudy
1:57 AM27 °C24 °C84 %1012.2 hPa16.1 kmENE (70°)20.4 km/hMostly Cloudy
2:05 AM27 °C24 °C84 %1012.2 hPa16.1 kmENE (70°)18.5 km/hMostly Cloudy
2:26 AM27 °C24 °C84 %1011.9 hPa16.1 kmEast (80°)20.4 km/hMostly Cloudy
2:29 AM27 °C24 °C84 %1011.9 hPa16.1 kmEast (80°)18.5 km/hMostly Cloudy
2:33 AM26 °C24 °C89 %1011.9 hPa16.1 kmEast (80°)14.8 km/hScattered Clouds
2:55 AM26 °C23.7 °C87 %1011.9 hPa16.1 kmEast (80°)13 km/hClear
3:31 AM27 °C24 °C84 %1011.5 hPa16.1 kmENE (70°)16.7 km/hMostly Cloudy
3:38 AM26 °C24 °C89 %1011.5 hPa16.1 kmEast (80°)18.5 km/hScattered Clouds
3:40 AM26 °C24 °C89 %1011.5 hPa16.1 kmENE (70°)18.5 km/hMostly Cloudy
3:49 AM26 °C24 °C89 %1011.9 hPa16.1 kmENE (70°)14.8 km/hScattered Clouds
3:54 AM26 °C24 °C89 %1011.5 hPa16.1 kmENE (70°)16.7 km/hMostly Cloudy
3:55 AM26.2 °C24.1 °C88 %1011.5 hPa16.1 kmENE (70°)16.7 km/hMostly Cloudy
4:03 AM26 °C24 °C89 %1011.9 hPa16.1 kmENE (70°)18.5 km/hMostly Cloudy
4:07 AM26 °C24 °C89 %1011.9 hPa16.1 kmENE (70°)16.7 km/hMostly Cloudy
4:08 AM26 °C24 °C89 %1011.9 hPa16.1 kmENE (70°)16.7 km/hMostly Cloudy
4:09 AM26 °C24 °C89 %1011.9 hPa16.1 kmENE (70°)18.5 km/hMostly Cloudy
4:11 AM26 °C24 °C89 %1011.9 hPa16.1 kmEast (80°)20.4 km/hMostly Cloudy
4:13 AM26 °C24 °C89 %1011.9 hPa16.1 kmEast (80°)20.4 km/hMostly Cloudy
4:21 AM26 °C23 °C83 %1011.9 hPa16.1 kmEast (90°)20.4 km/hMostly Cloudy
4:55 AM26.1 °C23.4 °C85 %1011.9 hPa16.1 kmENE (70°)16.7 km/hScattered Clouds
5:27 AM26 °C24 °C89 %1011.9 hPa16.1 kmENE (70°)14.8 km/hLight Drizzle
5:36 AM26 °C24 °C89 %1011.9 hPa16.1 kmENE (70°)14.8 km/hPartly Cloudy
5:55 AM26.2 °C24.1 °C88 %1011.9 hPa16.1 kmENE (60°)11.1 km/h0 mmScattered Clouds
5:59 AM26 °C24 °C89 %1011.9 hPa16.1 kmENE (60°)14.8 km/hMostly Cloudy
6:00 AM26 °C24 °C89 %1011.9 hPa16.1 kmENE (60°)14.8 km/hMostly Cloudy
6:13 AM26 °C24 °C89 %1011.9 hPa16.1 kmENE (60°)16.7 km/hMostly Cloudy
6:24 AM27 °C24 °C84 %1012.2 hPa16.1 kmENE (70°)20.4 km/hMostly Cloudy
6:27 AM27 °C24 °C84 %1012.2 hPa16.1 kmENE (70°)24.1 km/hMostly Cloudy
6:28 AM27 °C24 °C84 %1012.2 hPa16.1 kmEast (80°)24.1 km/hScattered Clouds
6:55 AM27.2 °C23.9 °C82 %1012.5 hPa16.1 kmENE (70°)20.4 km/hPartly Cloudy
7:18 AM27 °C24 °C84 %1012.9 hPa16.1 kmENE (70°)18.5 km/hMostly Cloudy
7:32 AM28 °C24 °C79 %1012.5 hPa16.1 kmENE (60°)16.7 km/hScattered Clouds
7:47 AM28 °C24 °C79 %1012.9 hPa16.1 kmENE (60°)18.5 km/hMostly Cloudy
7:50 AM28 °C24 °C79 %1012.9 hPa16.1 kmENE (60°)20.4 km/hScattered Clouds
7:55 AM28.1 °C24.3 °C80 %1012.9 hPa16.1 kmNE (50°)20.4 km/hScattered Clouds
8:44 AM28 °C24 °C79 %1013.2 hPa16.1 kmNE (50°)22.2 km/hMostly Cloudy
8:47 AM28 °C24 °C79 %1013.2 hPa16.1 kmENE (60°)25.9 km/hScattered Clouds
8:52 AM28 °C24 °C79 %1013.2 hPa16.1 kmNE (50°)24.1 km/hMostly Cloudy
8:55 AM28.1 °C24.1 °C79 %1013.2 hPa16.1 kmENE (70°)27.8 km/hMostly Cloudy
9:00 AM28 °C24 °C79 %1013.5 hPa4 kmEast (100°)24.1 km/hRainRain
9:01 AM28 °C24 °C79 %1013.5 hPa2.9 kmEast (90°)22.2 km/hRainRain
9:10 AM27 °C25 °C89 %1013.5 hPa4 kmESE (110°)13 km/hRainLight Rain
9:11 AM27 °C25 °C89 %1013.5 hPa4.8 kmESE (120°)14.8 km/hRainLight Rain
9:16 AM27 °C25 °C89 %1013.5 hPa16.1 kmEast (100°)11.1 km/hMostly Cloudy
9:26 AM28 °C25 °C84 %1013.2 hPa16.1 kmEast (80°)25.9 km/hMostly Cloudy
9:55 AM27.6 °C24.3 °C82 %1013.2 hPa16.1 kmEast (80°)22.2 km/h1.27 mmMostly Cloudy
10:14 AM28 °C25 °C84 %1012.9 hPa16.1 kmENE (60°)25.9 km/h37 km/hMostly Cloudy
10:18 AM28 °C25 °C84 %1012.9 hPa9.7 kmEast (80°)25.9 km/h37 km/hRainLight Rain
10:31 AM27 °C25 °C89 %1012.9 hPa16.1 kmENE (60°)24.1 km/hMostly Cloudy
10:43 AM29 °C25 °C79 %1012.9 hPa16.1 kmEast (80°)22.2 km/hScattered Clouds
10:53 AM29 °C25 °C79 %1012.5 hPa16.1 kmEast (80°)25.9 km/hMostly Cloudy
10:55 AM28.8 °C24.8 °C79 %1012.5 hPa16.1 kmEast (80°)25.9 km/h0 mmScattered Clouds
11:02 AM29 °C25 °C79 %1012.5 hPa16.1 kmENE (70°)25.9 km/hMostly Cloudy
11:04 AM29 °C25 °C79 %1012.5 hPa16.1 kmENE (70°)22.2 km/hScattered Clouds
11:08 AM29 °C25 °C79 %1012.5 hPa16.1 kmENE (70°)24.1 km/hMostly Cloudy
11:11 AM29 °C25 °C79 %1012.5 hPa16.1 kmENE (70°)24.1 km/hMostly Cloudy
11:13 AM29 °C25 °C79 %1012.5 hPa16.1 kmENE (70°)27.8 km/hMostly Cloudy
11:17 AM29 °C25 °C79 %1012.5 hPa16.1 kmENE (70°)25.9 km/hMostly Cloudy
11:20 AM29 °C25 °C79 %1012.5 hPa16.1 kmENE (70°)24.1 km/hMostly Cloudy
11:39 AM29 °C24 °C74 %1012.2 hPa16.1 kmEast (80°)22.2 km/hMostly Cloudy
11:55 AM29.9 °C24.7 °C73 %1012.2 hPa16.1 kmENE (70°)24.1 km/h33.3 km/hScattered Clouds
12:26 PM30 °C24 °C70 %1011.9 hPa16.1 kmEast (90°)24.1 km/hMostly Cloudy
12:53 PM30 °C24 °C70 %1011.5 hPa16.1 kmEast (80°)22.2 km/hMostly Cloudy
12:55 PM30.2 °C24.3 °C70 %1011.5 hPa16.1 kmENE (70°)24.1 km/hMostly Cloudy
1:39 PM30 °C24 °C70 %1011.2 hPa16.1 kmEast (80°)20.4 km/hMostly Cloudy
1:55 PM29.5 °C24.3 °C73 %1010.8 hPa16.1 kmEast (80°)22.2 km/hMostly Cloudy
2:17 PM30 °C24 °C70 %1010.5 hPa16.1 kmENE (70°)20.4 km/hScattered Clouds
2:18 PM30 °C24 °C70 %1010.5 hPa16.1 kmENE (60°)24.1 km/hMostly Cloudy
2:29 PM29 °C24 °C74 %1010.5 hPa16.1 kmENE (70°)20.4 km/hScattered Clouds
2:32 PM30 °C24 °C70 %1010.5 hPa16.1 kmEast (90°)18.5 km/hMostly Cloudy
2:55 PM29 °C24 °C74 %1010.5 hPa16.1 kmEast (90°)16.7 km/hMostly Cloudy
3:39 PM29 °C23 °C70 %1010.2 hPa16.1 kmEast (90°)16.7 km/hScattered Clouds
3:55 PM28.9 °C23.3 °C72 %1010.2 hPa16.1 kmEast (90°)20.4 km/hPartly Cloudy
4:55 PM28.8 °C23.4 °C72 %1010.5 hPa16.1 kmENE (70°)16.7 km/hPartly Cloudy
5:55 PM28.2 °C23 °C73 %1011.2 hPa16.1 kmEast (80°)20.4 km/hClear
6:55 PM27.2 °C23.5 °C80 %1011.9 hPa16.1 kmEast (80°)16.7 km/hScattered Clouds
7:55 PM26.9 °C23.7 °C83 %1012.5 hPa16.1 kmENE (70°)14.8 km/hScattered Clouds
8:55 PM26.5 °C23.1 °C81 %1012.9 hPa16.1 kmENE (70°)18.5 km/hClear
9:55 PM26.5 °C23.5 °C83 %1013.5 hPa16.1 kmEast (80°)18.5 km/hPartly Cloudy
10:55 PM26.4 °C22.6 °C79 %1013.2 hPa16.1 kmEast (80°)20.4 km/hClear
11:55 PM26.2 °C23.2 °C83 %1012.9 hPa16.1 kmEast (100°)14.8 km/hClear
Hourly data recorded from PGUA, located 0 kilometers away from Inarajan, Guam







STORIES FROM OUR PARTNERS